Flag for Canada Weather past 2 weeks in Kenora, Ontario, Canada

Now
32 °F

Passing clouds.


Feels Like: 26 °F
Forecast: 33 / 54 °F
Wind: 7 mph from North

Location: Kenora

Current Time: May 30, 2015 at 6:06:11 AM

Latest Report: May 30, 2015 at 5:00 AM


Visibility: 15 mi

Pressure: 30.37 "Hg

Humidity: 69%

Dew point: 23 °F

Location of KenoraLocation

Historic Weather in Kenora — Graph

°F

Kenora temperature yesterday

Maximum temperature yesterday: 57 °F (at 12:00 AM)
Minimum temperature yesterday: 37 °F (at 11:00 PM)
Average temperature yesterday: 47 °F

Past Weeks' High & Low Weather Summary

 TemperatureHumidityPressure
High82 °F (May 26, 4:00 PM)100% (May 15, 4:00 AM)30.41 "Hg (May 15, 4:00 AM)
Low28 °F (May 18, 7:00 AM)18% (May 23, 2:00 PM)29.70 "Hg (May 17, 5:00 PM)
Average55 °F60%30.01 "Hg
* Reported May 15 4:00 AM — May 30 4:00 AM, Kenora, Weather by CustomWeather, © 2015

Note: Actual official high and low records may vary slightly from our data, if they occured in-between our weather recording intervals... More about our weather records

Advertising

Kenora weather history for previous 24 hours

 ConditionsComfort  
Time TempWeatherWind HumidityBarometerVisibility
4:00 AM
Sat, May 30
34 °FOvercast.8 mph65%30.36 "Hg15 mi
3:00 AM34 °FOvercast.10 mph65%30.35 "Hg15 mi
2:00 AM34 °FPassing clouds.8 mph70%30.34 "Hg15 mi
1:00 AM36 °FPassing clouds.14 mph65%30.33 "Hg15 mi
12:00 AM36 °FPassing clouds.12 mph70%30.31 "Hg15 mi
11:00 PM
Fri, May 29
37 °FPassing clouds.15 mph65%30.29 "Hg15 mi
10:00 PM41 °FPassing clouds.15 mph61%30.27 "Hg15 mi
9:00 PM45 °FPartly sunny.10 mph61%30.24 "Hg15 mi
8:00 PM46 °FPartly sunny.13 mph53%30.21 "Hg15 mi
7:00 PM48 °FPartly sunny.14 mph54%30.19 "Hg15 mi
6:00 PM50 °FPartly sunny.17 mph50%30.17 "Hg15 mi
5:00 PM48 °FPartly sunny.16 mph62%30.16 "Hg15 mi
4:00 PM48 °FPartly sunny.16 mph62%30.15 "Hg15 mi
3:00 PM48 °FOvercast.18 mph66%30.14 "Hg15 mi
2:00 PM46 °FOvercast.12 mph71%30.13 "Hg15 mi
1:00 PM46 °FOvercast.14 mph76%30.12 "Hg15 mi
12:00 PM45 °FPartly sunny.17 mph76%30.11 "Hg15 mi
11:49 AM43 °FPartly sunny.16 mph81%30.11 "Hg15 mi
11:00 AM45 °FOvercast.14 mph81%30.08 "Hg15 mi
10:00 AM43 °FMostly cloudy.13 mph81%30.06 "Hg15 mi
9:00 AM43 °FOvercast.17 mph87%30.03 "Hg15 mi
8:00 AM43 °FLow clouds.20 mph93%30.01 "Hg12 mi
7:00 AM45 °FPartly sunny.18 mph93%29.98 "Hg12 mi
6:00 AM48 °FLow clouds.13 mph94%29.96 "Hg12 mi
Weather by CustomWeather, © 2015

See weather overviewHow to use our weather pages